Regional Weather Roundup
Issued by NWS Green Bay, WI

Home | Current Version | Previous Version | Text Only | Print | Product List | Glossary On
Versions: 1 2 3 4 5 6 7 8 9 10 11 12 13 14 15 16 17 18 19 20 21 22 23 24 25 26 27 28 29 30 31 32 33 34 35 36 37 38 39 40 41 42 43 44 45 46 47 48 49 50
000
ASUS43 KGRB 291611
RWRGRB

NORTH-CENTRAL AND NORTHEAST WISCONSIN REGIONAL WEATHER ROUNDUP
NATIONAL WEATHER SERVICE GREEN BAY WI
1100 AM CDT THU SEP 29 2016

WIZ005-009-010>012-018-019-291700-
NORTH CENTRAL WISCONSIN

CITY           SKY/WX    TMP DP  RH WIND       PRES   REMARKS
IRONWOOD         N/A    N/A N/A N/A MISG        N/A
MANITOWISH WTR CLOUDY    55  52  91 NE9       30.49S
ARBOR VITAE    MOSUNNY   59  52  77 E8        30.48S
EAGLE RIVER    MOSUNNY   55  51  86 N10       30.48S
LAND O LAKES   CLOUDY    55  51  86 N6        30.51R
RHINELANDER    MOSUNNY   58  52  80 NE8       30.48R
PHILLIPS       CLOUDY    55  51  85 NE10      30.47F
ANTIGO         SUNNY     60  52  76 NE8       30.44S
TOMAHAWK       PTSUNNY   56  49  77 N5        30.48R
MERRILL        SUNNY     57  51  79 NE10      30.46S
$$

WIZ013-073-291700-
NORTHEAST WISCONSIN

CITY           SKY/WX    TMP DP  RH WIND       PRES   REMARKS
IRON MOUNTAIN  MOSUNNY   64  52  64 N9        30.44R
MARINETTE      SUNNY     66  54  65 NE16      30.40R
OCONTO         SUNNY     66  55  66 N10G16    30.38F
$$

WIZ017-030-035>037-045-291700-
CENTRAL WISCONSIN

CITY           SKY/WX    TMP DP  RH WIND       PRES   REMARKS
MEDFORD        SUNNY     57  54  88 N12       30.45R
WAUSAU         SUNNY     60  51  72 VRB7      30.42S
MOSINEE        MOSUNNY   59  54  82 NE13      30.43S
MARSHFIELD     SUNNY     60  49  66 N10       30.42R
WISC RAPIDS    SUNNY     64  52  64 N10       30.41S
STEVENS POINT  SUNNY     61  51  69 N10       30.41S
WAUPACA        SUNNY     67  54  61 N13       30.38S
SHAWANO        SUNNY     66  54  65 NE10      30.40S
CLINTONVILLE   SUNNY     64  50  59 NE17      30.39S
WAUTOMA        SUNNY     65  53  65 N10G18    30.36F
$$

WIZ038-039-048-051-291700-
FOX VALLEY

CITY           SKY/WX    TMP DP  RH WIND       PRES   REMARKS
NWS GREEN BAY  LGT RAIN  63  57  81 N20G28    30.37S
APPLETON       MOSUNNY   63  52  67 NE17G25   30.35R
OSHKOSH        MOSUNNY   62  55  77 NE15G24   30.35R
FOND DU LAC    SUNNY     63  56  78 N17G28    30.34S
$$

WIZ022-050-052-291700-
EAST CENTRAL WISCONSIN

CITY           SKY/WX    TMP DP  RH WIND       PRES   REMARKS
EPHRAIM        FAIR      64  56  76 NE12      30.38S
WASHINGTON ISL CLOUDY    63  57  80 NE12G20   30.40S
STURGEON BAY   SUNNY     66  56  70 NE12      30.38S
MANITOWOC      MOSUNNY   66  58  75 N15G26    30.33S
SHEBOYGAN      PTSUNNY   66  59  78 NE22G32   30.31R
$$

LMZ563-521-522-541>543-291700-
LAKESHORE

STATION/POSITION TIME  TEMP    WIND        PRES    VSBY  WAVE
                       AIR SEA DIR/SP/G                  HT/PER
                 (UTC) (F)     (DEG/KT/KT) (MB)    (MI)  (FT/S)
SHEBOYGAN LKSHOR 1600   61      10/ 24/ 26 1026.0R
KEWAUNEE LKSHORE 1500   61      10/ 11/ 17 1026.6R
NORTHPORT PIER   1540   63      20/  8/ 11 1029.1R
N MID LAKE BUOY  1550   62 66   30/ 17/ 19 1028.3R         3/ 5
CHAMBERS ISLAND  1500   62      20/ 19/ 21 1028.4R
MENOMINEE LKSHOR 1500   61      20/ 19/ 22 1028.0R
$$




USA.gov is the U.S. government's official web portal to all federal, state and local government web resources and services.